Location: Ku?niki
(51.4449°N, 17.8974°E)
Time: 03:34:56
(UTC+00:00)

Meteor 2-9 Rocket - Pass Details

Date: 18 September 2020
Orbit: 791 x 896 km, 81.3° (Epoch: 22 October)

Event Time Altitude Azimuth Distance (km) Brightness Sun altitude
Rises 17:51:41 0° 190° (S) 3,499 7.4 -9.5°
Reaches altitude 10° 17:54:09 10° 190° (S) 2,561 6.7 -9.9°
Maximum altitude 18:00:01 90° 110° (ESE) 896 4.3 -10.8°
Drops below altitude 10° 18:05:50 10° 13° (NNE) 2,539 6.8 -11.7°
Sets 18:08:15 0° 13° (NNE) 3,468 7.5 -12.0°
